Temp
-0 -1 -1 -1 -2 -2 -2 -2 -2 -1 -1 -3 -5 -6 -6 -7 -7 -8 -8 -9 -9 -9 -10 -10 -10 -11 -11 -11 -11 -10 -10 -10 -11 -11 -11 -12 -13 -12
-1 -2 -2 -2 -2 -2 -3 -3 -4 -4 -2 -4 -6 -7 -8 -9 -9 -10 -10 -10 -10 -11 -11 -11 -11 -11 -12 -11 -11 -11 -11 -11 -11 -11 -12 -13 -13 -13
-2 -2 -2 -2 -3 -3 -4 -5 -5 -6 -5 -4 -6 -7 -9 -10 -11 -12 -12 -12 -10 -11 -11 -11 -12 -12 -11 -11 -11 -11 -11 -11 -11 -12 -12 -12 -14 -14
-3 -2 -3 -3 -4 -5 -5 -6 -7 -7 -7 -6 -7 -8 -9 -11 -12 -12 -12 -12 -12 -12 -12 -11 -12 -12 -12 -12 -12 -12 -11 -11 -11 -12 -12 -12 -13 -14
-3 -3 -4 -4 -5 -5 -6 -7 -8 -8 -8 -9 -8 -9 -10 -12 -12 -13 -13 -12 -12 -12 -12 -12 -12 -12 -12 -12 -12 -12 -12 -12 -12 -12 -12 -12 -12 -12
-4 -4 -5 -5 -6 -7 -8 -8 -9 -9 -10 -11 -11 -11 -12 -12 -13 -13 -12 -12 -12 -12 -12 -11 -11 -11 -11 -11 -11 -12 -12 -12 -11 -12 -12 -12 -12 -13
-5 -5 -6 -6 -7 -8 -9 -9 -10 -11 -12 -13 -13 -13 -13 -13 -13 -12 -12 -12 -11 -12 -12 -11 -12 -12 -11 -12 -12 -12 -12 -11 -11 -11 -11 -11 -12 -12
-5 -6 -7 -7 -8 -9 -9 -10 -11 -12 -13 -13 -14 -14 -14 -13 -13 -13 -13 -12 -10 -12 -13 -10 -13 -11 -12 -12 -12 -12 -11 -11 -11 -11 -11 -12 -12 -12
-6 -7 -8 -9 -9 -10 -10 -11 -12 -13 -14 -14 -14 -14 -14 -14 -14 -13 -12 -12 -12 -12 -14 -10 -12 -11 -12 -12 -13 -12 -11 -11 -11 -12 -12 -12 -12 -12
-7 -8 -9 -9 -10 -11 -11 -12 -13 -13 -14 -14 -14 -14 -15 -15 -15 -14 -14 -13 -12 -13 -15 -12 -12 -11 -11 -12 -12 -12 -12 -11 -11 -11 -11 -12 -12 -12
-8 -9 -9 -10 -11 -12 -12 -13 -13 -13 -14 -14 -14 -14 -14 -15 -15 -15 -14 -14 -13 -12 -14 -13 -12 -11 -10 -11 -11 -11 -11 -11 -11 -11 -11 -11 -12 -12
-9 -9 -10 -11 -12 -13 -13 -13 -13 -13 -13 -13 -13 -14 -14 -14 -15 -16 -15 -15 -14 -12 -14 -12 -12 -13 -9 -10 -11 -11 -11 -11 -11 -11 -11 -11 -11 -11
-9 -10 -11 -12 -12 -13 -14 -14 -14 -14 -13 -13 -14 -14 -14 -15 -15 -15 -15 -15 -14 -14 -15 -14 -12 -13 -13 -11 -10 -11 -11 -11 -11 -10 -11 -11 -11 -11
-10 -11 -12 -12 -13 -13 -14 -14 -14 -14 -14 -14 -14 -15 -14 -15 -15 -15 -15 -15 -15 -15 -15 -15 -13 -13 -13 -12 -11 -11 -11 -11 -11 -9 -9 -9 -10 -11
-11 -12 -12 -13 -13 -13 -14 -14 -14 -14 -14 -14 -14 -14 -15 -15 -15 -14 -14 -14 -14 -15 -15 -14 -14 -14 -14 -13 -12 -11 -11 -10 -10 -9 -9 -10 -11 -12
-12 -12 -13 -13 -14 -14 -14 -15 -15 -15 -15 -15 -14 -14 -15 -14 -15 -14 -14 -14 -14 -13 -15 -14 -14 -14 -13 -13 -13 -11 -11 -11 -10 -10 -10 -10 -11 -11
-12 -13 -13 -13 -13 -14 -14 -15 -15 -15 -15 -15 -15 -15 -14 -14 -15 -15 -14 -14 -14 -14 -13 -14 -14 -14 -13 -13 -12 -11 -11 -11 -11 -10 -10 -10 -11 -11
-13 -13 -13 -14 -14 -14 -14 -14 -15 -15 -15 -15 -15 -15 -15 -15 -14 -14 -14 -14 -14 -14 -13 -13 -13 -12 -13 -13 -12 -11 -11 -11 -11 -11 -10 -10 -11 -11
-14 -14 -14 -14 -14 -14 -14 -14 -14 -15 -15 -15 -15 -15 -15 -15 -15 -15 -15 -14 -14 -14 -14 -14 -14 -13 -13 -12 -12 -12 -11 -11 -11 -11 -10 -10 -10 -11
-14 -14 -14 -14 -14 -14 -14 -15 -15 -15 -15 -15 -15 -15 -15 -15 -15 -15 -15 -15 -14 -14 -14 -14 -14 -14 -14 -13 -12 -12 -12 -11 -11 -11 -10 -10 -10 -10
-14 -14 -14 -14 -14 -14 -14 -14 -15 -15 -15 -15 -15 -15 -15 -15 -15 -15 -15 -15 -15 -15 -14 -14 -14 -14 -14 -13 -13 -12 -12 -12 -11 -11 -10 -10 -9 -10
-14 -14 -14 -14 -14 -14 -14 -14 -15 -15 -15 -15 -15 -15 -15 -15 -15 -15 -15 -15 -15 -15 -14 -14 -14 -13 -14 -13 -13 -12 -11 -11 -11 -11 -11 -10 -9 -9
-13 -14 -14 -13 -14 -13 -13 -14 -14 -14 -14 -14 -14 -15 -15 -15 -15 -15 -15 -15 -15 -15 -14 -14 -14 -14 -13 -13 -13 -12 -12 -11 -11 -11 -11 -11 -10 -10
Height
3041 3036 3031 3026 3021 3014 3008 3001 2992 2982 2978 2971 2961 2951 2943 2935 2928 2920 2911 2906 2900 2894 2887 2880 2875 2872 2869 2866 2863 2860 2857 2855 2853 2852 2852 2852 2853 2855
3032 3028 3022 3017 3011 3004 2997 2991 2984 2975 2962 2959 2948 2936 2927 2919 2912 2904 2898 2894 2889 2883 2877 2870 2865 2860 2857 2854 2851 2848 2846 2843 2841 2839 2837 2837 2837 2838
3024 3019 3013 3007 3001 2994 2986 2979 2971 2963 2951 2948 2937 2927 2915 2906 2899 2892 2886 2883 2877 2873 2867 2863 2857 2852 2848 2843 2841 2837 2834 2831 2828 2826 2824 2822 2823 2823
3016 3010 3004 2997 2990 2982 2975 2967 2957 2949 2939 2928 2924 2916 2906 2898 2890 2881 2877 2872 2867 2863 2858 2853 2849 2844 2838 2834 2830 2826 2823 2819 2816 2812 2810 2809 2808 2807
3007 3000 2994 2986 2979 2971 2962 2953 2943 2935 2926 2915 2908 2903 2895 2888 2879 2873 2868 2863 2860 2854 2849 2843 2840 2835 2829 2824 2819 2815 2811 2806 2802 2799 2796 2794 2793 2792
2998 2990 2983 2976 2967 2957 2949 2939 2930 2922 2913 2904 2896 2890 2884 2879 2871 2863 2858 2856 2850 2847 2843 2834 2830 2825 2819 2814 2809 2804 2799 2794 2790 2786 2783 2780 2778 2777
2987 2980 2973 2964 2955 2946 2936 2928 2919 2911 2903 2895 2887 2881 2876 2869 2863 2857 2849 2846 2844 2837 2832 2827 2817 2814 2810 2804 2798 2793 2786 2782 2778 2774 2771 2767 2764 2761
2978 2970 2960 2952 2944 2935 2925 2917 2909 2901 2895 2886 2878 2873 2868 2861 2856 2849 2842 2838 2832 2833 2818 2818 2808 2805 2799 2795 2789 2783 2778 2773 2768 2764 2759 2756 2753 2749
2967 2958 2949 2940 2932 2922 2914 2907 2901 2895 2887 2878 2871 2867 2859 2856 2848 2844 2839 2832 2824 2818 2807 2805 2801 2796 2791 2787 2781 2776 2771 2765 2759 2753 2748 2743 2741 2737
2957 2948 2939 2930 2921 2912 2905 2898 2892 2886 2879 2872 2866 2861 2854 2848 2842 2837 2831 2825 2819 2812 2803 2793 2794 2790 2784 2780 2775 2771 2765 2759 2753 2746 2739 2732 2728 2725
2947 2938 2928 2918 2911 2904 2897 2889 2883 2878 2873 2867 2861 2855 2849 2843 2835 2827 2823 2816 2810 2805 2802 2788 2786 2780 2775 2773 2769 2763 2757 2750 2742 2735 2728 2722 2717 2712
2939 2929 2920 2912 2904 2897 2888 2881 2875 2871 2865 2861 2854 2848 2842 2837 2831 2823 2816 2810 2804 2796 2795 2782 2779 2771 2762 2763 2760 2754 2747 2741 2732 2725 2718 2713 2707 2701
2927 2919 2911 2904 2896 2889 2882 2875 2868 2863 2859 2853 2848 2843 2837 2831 2825 2819 2813 2805 2799 2791 2788 2777 2773 2768 2760 2750 2752 2748 2739 2731 2722 2716 2710 2704 2698 2692
2918 2910 2902 2895 2888 2881 2875 2869 2863 2857 2852 2847 2842 2837 2831 2826 2820 2814 2808 2801 2795 2786 2781 2775 2766 2762 2755 2749 2743 2741 2735 2725 2714 2707 2700 2694 2688 2681
2909 2902 2895 2887 2881 2876 2869 2863 2858 2852 2846 2841 2836 2831 2825 2819 2813 2807 2803 2795 2791 2784 2777 2770 2763 2759 2753 2746 2738 2732 2722 2716 2708 2700 2694 2687 2677 2669
2901 2895 2887 2881 2875 2870 2864 2858 2853 2847 2841 2836 2830 2825 2820 2814 2808 2800 2794 2789 2783 2780 2774 2766 2761 2755 2750 2745 2737 2729 2722 2710 2702 2695 2689 2681 2671 2662
2893 2886 2880 2875 2870 2865 2860 2854 2848 2843 2838 2832 2826 2821 2815 2809 2803 2796 2790 2783 2777 2770 2767 2763 2758 2753 2747 2741 2736 2728 2718 2710 2701 2691 2685 2677 2667 2658
2887 2880 2875 2870 2865 2861 2856 2851 2845 2840 2834 2829 2823 2816 2810 2804 2798 2792 2786 2779 2773 2767 2761 2757 2753 2750 2745 2741 2732 2724 2717 2708 2699 2691 2683 2675 2667 2657
2882 2876 2871 2866 2861 2856 2851 2846 2841 2836 2831 2825 2819 2812 2805 2799 2793 2788 2782 2776 2771 2764 2759 2754 2749 2744 2739 2734 2732 2723 2714 2707 2698 2690 2682 2676 2668 2660
2876 2871 2867 2862 2857 2852 2847 2842 2838 2833 2827 2821 2814 2808 2801 2795 2790 2784 2778 2772 2767 2762 2756 2752 2747 2743 2737 2731 2724 2722 2714 2705 2698 2690 2682 2676 2671 2664
2873 2868 2864 2859 2854 2849 2844 2839 2834 2829 2822 2816 2810 2804 2798 2792 2787 2781 2775 2770 2764 2758 2753 2749 2746 2741 2736 2732 2726 2720 2714 2706 2698 2690 2683 2677 2672 2667
2870 2865 2861 2856 2851 2846 2841 2836 2831 2825 2819 2813 2806 2800 2794 2788 2782 2777 2772 2766 2762 2756 2751 2746 2743 2740 2735 2730 2725 2718 2712 2706 2699 2692 2684 2679 2673 2668
2867 2863 2858 2854 2849 2844 2838 2833 2827 2821 2815 2809 2803 2797 2790 2784 2779 2773 2768 2764 2759 2754 2749 2745 2742 2738 2733 2729 2724 2718 2712 2705 2698 2693 2686 2680 2675 2670
Wind_Speed
39 40 40 41 43 45 47 50 55 62 63 64 64 65 65 64 63 61 60 55 51 48 45 44 43 41 40 40 41 42 44 46 48 49 51 52 46 47
40 40 42 43 45 48 50 53 55 59 67 63 64 63 61 60 59 56 52 49 44 39 37 39 39 38 37 36 37 37 38 39 41 43 46 45 44 45
41 42 44 46 47 50 52 55 57 58 64 66 62 59 58 58 54 50 48 41 38 36 32 30 34 34 35 36 37 37 37 37 37 38 40 42 42 44
42 44 46 47 49 52 55 56 57 58 60 64 60 57 55 52 48 46 42 39 38 31 31 32 32 32 37 37 37 36 37 38 39 42 43 43 42 42
44 45 46 49 52 54 55 57 57 57 57 59 58 53 51 46 43 42 41 37 31 32 30 35 33 34 38 38 37 37 37 39 42 44 45 46 45 44
44 46 48 51 53 54 56 56 57 56 54 52 52 51 47 41 41 43 39 32 34 32 31 40 38 36 35 32 32 33 38 42 43 42 40 41 42 44
45 48 51 52 52 53 54 54 53 52 48 47 48 47 40 39 38 36 39 35 33 39 38 36 41 32 28 27 29 33 38 36 35 35 35 34 35 36
48 50 52 52 52 52 52 50 48 46 43 44 45 41 38 37 34 37 39 38 41 37 43 30 34 25 28 26 26 31 31 33 36 37 37 36 35 33
48 50 51 52 52 52 50 48 44 38 38 40 40 37 36 32 36 34 35 40 43 41 43 34 30 28 28 23 20 25 29 33 35 36 37 37 35 35
49 50 50 51 49 48 47 43 40 36 34 34 34 31 32 33 33 35 37 38 38 38 38 39 32 28 26 17 16 21 27 32 34 35 37 37 36 36
49 49 50 49 46 43 41 40 38 32 30 29 28 28 28 30 34 39 38 40 39 36 30 39 33 32 27 13 14 21 28 33 34 35 34 34 36 37
49 48 45 44 41 38 38 38 35 31 27 24 26 28 30 31 33 35 37 38 40 38 31 39 33 37 32 20 21 27 31 31 33 34 30 31 31 32
49 46 43 41 38 35 34 33 33 30 27 28 27 29 31 32 32 32 33 36 38 38 32 37 34 32 33 35 26 28 32 34 33 28 29 31 29 31
46 43 41 39 35 32 31 30 28 29 30 30 31 30 31 30 29 29 31 33 33 35 33 33 35 32 32 33 33 31 30 30 31 28 30 31 32 31
43 40 38 35 30 29 28 27 28 29 31 32 32 31 30 31 31 32 30 32 28 27 28 30 30 28 29 31 34 33 39 32 26 25 26 29 30 31
42 39 36 30 27 26 25 26 28 30 31 31 30 29 30 31 32 33 31 29 27 20 20 24 25 25 27 24 30 32 33 35 31 28 25 28 33 30
40 37 31 26 24 24 25 26 27 28 28 28 29 31 31 31 28 28 27 27 28 28 21 16 18 21 21 23 23 29 31 31 30 30 25 26 32 26
37 32 27 26 25 25 25 24 26 26 26 27 29 31 31 29 27 25 28 28 29 26 22 20 18 16 15 14 24 29 30 30 27 26 25 25 28 24
32 26 25 25 25 25 25 24 24 23 26 28 29 29 30 28 27 27 28 27 25 24 21 20 19 21 22 20 18 27 32 28 26 22 21 21 25 28
25 24 24 24 24 24 23 24 22 24 25 27 28 29 29 28 27 28 28 27 24 21 19 17 17 19 22 24 26 25 29 30 27 24 20 18 20 17
21 22 23 24 24 24 24 24 25 26 27 28 27 27 27 28 27 28 28 25 23 22 19 16 14 17 21 21 23 24 26 27 26 25 21 17 13 14
19 20 22 23 24 24 24 23 23 25 26 26 25 26 27 27 28 27 26 24 20 21 18 17 14 15 19 20 21 25 26 25 23 22 22 20 16 16
18 19 20 22 23 23 24 24 26 26 26 27 27 27 28 28 26 25 24 20 20 19 19 16 15 15 19 20 22 24 26 26 23 18 18 17 15 15
Wind_Direction
312 311 310 310 311 310 310 311 311 310 310 313 314 314 311 309 308 306 304 306 304 303 302 298 295 294 290 287 284 280 277 275 274 272 272 268 266 262
312 311 311 311 312 312 311 311 311 311 310 314 313 312 311 310 308 308 307 306 305 303 299 296 296 295 295 292 287 285 283 281 279 277 273 272 270 266
312 312 313 313 313 312 311 311 311 311 311 312 311 311 309 309 310 309 306 306 304 303 299 298 294 297 295 293 293 291 290 287 283 280 275 271 269 263
313 314 313 313 313 312 312 312 312 313 313 312 310 309 309 310 310 305 309 311 309 306 304 299 300 300 297 297 296 294 290 288 284 280 277 274 271 267
314 313 313 314 314 313 314 314 314 314 313 311 312 311 310 312 308 309 310 307 307 310 310 303 302 301 297 297 295 293 291 288 285 283 280 277 272 267
314 315 315 315 316 317 317 316 315 315 314 312 311 309 313 315 309 310 310 311 313 311 310 303 303 300 296 298 293 292 289 289 292 292 289 285 278 272
316 316 317 318 318 317 317 315 314 313 313 310 306 309 314 310 311 311 311 316 314 313 313 309 307 306 301 301 301 295 295 299 300 299 297 291 285 279
317 318 319 319 318 317 316 315 313 313 310 308 308 312 313 311 310 312 314 316 313 319 316 319 317 318 313 311 302 295 299 302 303 302 298 294 289 284
320 321 320 320 319 319 316 314 313 312 310 309 310 314 311 312 310 313 312 315 317 324 321 325 324 323 317 317 294 296 300 305 307 305 301 297 292 286
323 322 320 319 320 319 315 313 314 316 312 310 309 312 311 313 312 312 315 317 321 322 324 318 325 322 317 324 312 306 301 300 298 299 298 295 293 287
324 322 322 322 321 317 314 314 316 317 314 312 312 313 315 316 317 318 321 318 320 321 328 311 325 326 323 324 316 321 318 313 306 304 299 294 293 289
322 321 321 320 318 316 316 316 317 319 319 316 319 319 317 319 318 314 315 316 320 320 329 315 326 328 327 343 345 335 324 321 309 305 298 297 296 291
323 323 322 320 318 317 318 317 318 320 322 322 321 320 319 318 317 315 314 316 320 318 325 315 324 325 322 328 344 341 330 326 317 308 303 301 300 293
323 324 322 320 319 319 318 318 319 320 322 323 322 321 319 320 320 318 318 317 319 318 321 314 316 321 323 327 330 339 336 335 329 314 312 308 303 297
325 325 323 321 319 320 319 321 322 321 321 321 322 324 325 325 323 319 319 318 320 316 313 313 315 319 320 324 328 343 340 342 340 326 324 321 322 316
326 326 325 323 323 324 324 324 322 321 323 324 325 326 325 325 325 322 324 325 325 324 311 311 312 318 317 321 330 338 342 346 344 339 331 337 335 324
327 326 326 328 329 329 327 324 323 323 324 324 324 324 325 326 328 327 330 333 334 332 327 317 311 311 315 317 328 339 345 349 348 341 338 344 339 331
328 326 329 331 331 329 328 328 327 325 324 324 324 324 326 328 330 334 336 336 335 334 327 325 317 316 312 316 337 344 349 349 351 346 346 353 355 350
327 328 330 330 330 330 330 329 327 325 325 325 326 326 326 331 331 333 334 335 337 334 328 323 329 331 330 333 348 347 346 350 353 356 347 356 0 11
327 328 329 329 330 331 329 328 328 327 328 328 328 329 329 330 331 333 334 335 336 335 333 323 323 333 335 337 341 346 346 348 350 357 354 348 359 359
328 329 328 331 332 332 332 332 330 331 331 331 330 329 330 330 329 331 331 334 335 336 334 329 324 332 338 335 333 341 347 346 348 351 357 2 9 16
331 330 332 334 335 335 335 334 333 332 331 332 334 332 330 329 328 330 332 331 339 340 337 332 329 328 335 337 341 342 347 351 350 352 354 1 10 20
332 335 337 338 338 338 339 339 339 340 341 342 343 340 335 333 332 332 333 333 343 343 340 342 336 329 330 337 341 344 350 351 353 359 0 4 2 4